Binghamton, NY

5:02 AM EST on December 15, 2019 (GMT -0500)
Binghamton Regional-Link

Weather History for KBGM - May, 2019

Change the Weather History Date:

Tuesday, May 14, 2019

  Actual Average Record
Temperature  
Mean Temperature 42 °F 55 °F  
Max Temperature 44 °F 65 °F 81 °F (1956)
Min Temperature 39 °F 46 °F 30 °F (1996)
Degree Days  
Heating Degree Days 23 10  
Month to date heating degree days 181 171  
Since 1 July heating degree days 6971 6970  
Cooling Degree Days 0 1  
Month to date cooling degree days 0 2  
Year to date cooling degree days 0 6  
Moisture  
Dew Point 39 °F    
Average Humidity 96    
Maximum Humidity 100    
Minimum Humidity 92    
Precipitation  
Precipitation 0.17 in 0.11 in 0.86 in (2014)
Month to date precipitation 3.47 1.52  
Year to date precipitation 14.95 12.70  
Snow  
Snow 0.00 in 0.00 in T in (2002)
Month to date snowfall 0.0 0.1  
Since 1 July snowfall 81.4 83.4  
Snow Depth 0.00 in    
Sea Level Pressure  
Sea Level Pressure 29.80 in    
Wind  
Wind Speed 8 mph (WNW)    
Max Wind Speed 16 mph    
Max Gust Speed 25 mph    
Visibility 6 miles    
Events Rain    
T = Trace of Precipitation, MM = Missing Value Source: NWS Daily Summary

Daily Weather History Graph

Daily Weather History Graph

Search for Another Location

Airport or City:

Astronomy

May. 14, 2019 Rise Set
Actual Time 5:44 AM EDT 8:17 PM EDT
Civil Twilight 5:12 AM EDT 8:49 PM EDT
Nautical Twilight 4:32 AM EDT 9:29 PM EDT
Astronomical Twilight 3:47 AM EDT 10:14 PM EDT
Moon 3:28 PM EDT (5/14) 3:43 AM EDT (5/14)
Length of Visible Light 15h 36m
Length of Day
14h 32m
Waxing Gibbous, 79% of the Moon is Illuminated
May 14
Waxing Gibbous
May 18
Full
May 26
Last Quarter
Jun 3
New
Jun 10
First Quarter

Hourly Weather History & Observations

Time (EDT) Temp. Windchill Dew Point Humidity Pressure Visibility Wind Dir Wind Speed Gust Speed Precip Events Conditions
12:53 AM 39.9 °F 35.1 °F 39.9 °F 100% 29.80 in 2.5 mi SSE 6.9 mph - 0.03 in Rain Light Rain
1:07 AM 39.9 °F 35.1 °F 39.9 °F 100% 29.77 in 3.0 mi SSE 6.9 mph - 0.00 in Rain Light Rain
1:25 AM 39.9 °F 35.1 °F 39.9 °F 100% 29.76 in 2.0 mi South 6.9 mph - 0.00 in   Overcast
1:40 AM 41.0 °F 38.0 °F 39.9 °F 96% 29.75 in 1.5 mi South 4.6 mph - 0.00 in   Overcast
1:53 AM 41.0 °F 38.0 °F 39.9 °F 96% 29.78 in 2.5 mi SSW 4.6 mph - 0.01 in   Overcast
2:53 AM 41.0 °F 39.0 °F 39.9 °F 96% 29.77 in 4.0 mi SSW 3.5 mph - 0.01 in Rain Light Rain
3:33 AM 41.0 °F - 41.0 °F 100% 29.73 in 2.0 mi Calm Calm - 0.01 in Rain Light Rain
3:53 AM 41.0 °F - 41.0 °F 100% 29.76 in 2.0 mi Calm Calm - 0.02 in Rain Light Rain
4:38 AM 41.0 °F 39.0 °F 41.0 °F 100% 29.73 in 3.0 mi SW 3.5 mph - 0.02 in   Overcast
4:46 AM 41.0 °F 39.0 °F 41.0 °F 100% 29.73 in 2.5 mi SW 3.5 mph - 0.02 in   Overcast
4:51 AM 41.0 °F 39.0 °F 41.0 °F 100% 29.73 in 3.0 mi WSW 3.5 mph - 0.02 in   Overcast
4:53 AM 41.0 °F 38.0 °F 41.0 °F 100% 29.76 in 3.0 mi WSW 4.6 mph - 0.02 in   Overcast
5:06 AM 41.0 °F 39.0 °F 41.0 °F 100% 29.73 in 2.5 mi WSW 3.5 mph - N/A   Overcast
5:17 AM 41.0 °F 38.0 °F 41.0 °F 100% 29.73 in 1.2 mi WSW 4.6 mph - 0.00 in Rain Light Rain
5:30 AM 42.1 °F 38.4 °F 41.0 °F 96% 29.73 in 2.5 mi WSW 5.8 mph - 0.01 in Rain Light Rain
5:38 AM 42.1 °F 39.2 °F 41.0 °F 96% 29.73 in 3.0 mi WSW 4.6 mph - 0.01 in Rain Light Rain
5:53 AM 42.1 °F 39.2 °F 41.0 °F 96% 29.76 in 1.5 mi WSW 4.6 mph - 0.01 in   Overcast
6:05 AM 42.1 °F 39.2 °F 41.0 °F 96% 29.73 in 0.8 mi WSW 4.6 mph - N/A   Overcast
6:53 AM 42.1 °F 38.4 °F 41.0 °F 96% 29.77 in 0.8 mi WSW 5.8 mph - 0.00 in   Overcast
7:01 AM 42.1 °F 37.7 °F 41.0 °F 96% 29.74 in 1.0 mi West 6.9 mph - N/A   Overcast
7:08 AM 42.1 °F 36.6 °F 41.0 °F 96% 29.74 in 1.0 mi West 9.2 mph - N/A   Overcast
7:21 AM 42.1 °F 37.7 °F 41.0 °F 96% 29.75 in 2.0 mi West 6.9 mph - N/A   Overcast
7:53 AM 42.1 °F 37.7 °F 41.0 °F 96% 29.78 in 2.0 mi West 6.9 mph - N/A   Overcast
8:04 AM 42.1 °F 37.1 °F 41.0 °F 96% 29.75 in 3.0 mi West 8.1 mph - N/A   Overcast
8:53 AM 42.1 °F 37.7 °F 41.0 °F 96% 29.78 in 10.0 mi WSW 6.9 mph - N/A   Overcast
9:15 AM 43.0 °F 38.8 °F 41.0 °F 93% 29.75 in 10.0 mi West 6.9 mph - N/A   Overcast
9:26 AM 43.0 °F 38.8 °F 41.0 °F 93% 29.75 in 10.0 mi West 6.9 mph - N/A   Overcast
9:33 AM 43.0 °F 38.2 °F 41.0 °F 93% 29.76 in 10.0 mi West 8.1 mph - N/A   Overcast
9:53 AM 43.0 °F 38.2 °F 41.0 °F 93% 29.78 in 10.0 mi West 8.1 mph - N/A   Overcast
10:02 AM 43.0 °F 38.8 °F 41.0 °F 93% 29.76 in 10.0 mi West 6.9 mph - 0.00 in Rain Light Rain
10:29 AM 44.1 °F 40.8 °F 41.0 °F 89% 29.75 in 10.0 mi West 5.8 mph - 0.00 in   Overcast
10:44 AM 43.0 °F 38.8 °F 41.0 °F 93% 29.75 in 10.0 mi WSW 6.9 mph - 0.00 in Rain Light Rain
10:53 AM 43.0 °F 37.7 °F 41.0 °F 93% 29.78 in 10.0 mi West 9.2 mph - 0.00 in Rain Light Rain
11:12 AM 43.0 °F 36.4 °F 41.0 °F 93% 29.76 in 1.0 mi West 12.7 mph - 0.00 in Rain Light Rain
11:39 AM 41.0 °F 34.7 °F 39.9 °F 96% 29.77 in 1.0 mi WNW 10.4 mph - 0.02 in Rain Light Rain
11:53 AM 41.0 °F 33.9 °F 39.9 °F 96% 29.80 in 1.0 mi WNW 12.7 mph - 0.02 in Rain Light Rain
12:05 PM 39.9 °F 33.4 °F 37.9 °F 93% 29.78 in 10.0 mi WNW 10.4 mph 20.7 mph 0.00 in Rain Light Rain
12:42 PM 39.9 °F 32.5 °F 37.9 °F 93% 29.78 in 10.0 mi WNW 12.7 mph 20.7 mph 0.01 in Rain Light Rain
12:53 PM 39.0 °F 31.0 °F 37.0 °F 93% 29.81 in 10.0 mi WNW 13.8 mph - 0.01 in Rain Light Rain
12:55 PM 39.0 °F 31.4 °F 37.0 °F 93% 29.78 in 2.0 mi WNW 12.7 mph - 0.00 in Rain Light Rain
1:07 PM 39.0 °F 31.8 °F 37.0 °F 93% 29.78 in 2.0 mi NW 11.5 mph - 0.00 in Rain Light Rain
1:53 PM 39.9 °F 32.5 °F 37.9 °F 93% 29.82 in 2.0 mi WNW 12.7 mph - 0.02 in Rain Light Rain
2:07 PM 39.9 °F 32.9 °F 37.9 °F 93% 29.79 in 10.0 mi WNW 11.5 mph - 0.01 in Rain Light Rain
2:34 PM 39.9 °F 32.1 °F 37.9 °F 93% 29.80 in 2.0 mi NW 13.8 mph - 0.01 in Rain Light Rain
2:37 PM 39.9 °F 32.9 °F 37.9 °F 93% 29.80 in 3.0 mi WNW 11.5 mph - 0.02 in Rain Light Rain
2:50 PM 39.2 °F 32.0 °F 37.4 °F 93% 29.80 in 10.0 mi NW 11.5 mph - 0.02 in   Overcast
2:53 PM 41.0 °F 34.3 °F 37.9 °F 89% 29.83 in 10.0 mi NW 11.5 mph - 0.02 in   Overcast
3:06 PM 41.0 °F 34.7 °F 37.9 °F 89% 29.80 in 10.0 mi NW 10.4 mph - 0.00 in Rain Light Rain
3:38 PM 42.1 °F 35.2 °F 39.0 °F 89% 29.80 in 10.0 mi NNW 12.7 mph - 0.01 in Rain Light Rain
3:53 PM 43.0 °F 36.8 °F 39.0 °F 86% 29.83 in 10.0 mi NNW 11.5 mph 20.7 mph 0.01 in Rain Light Rain
4:07 PM 42.1 °F 35.2 °F 39.0 °F 89% 29.80 in 10.0 mi NNW 12.7 mph 20.7 mph 0.00 in Rain Light Rain
4:53 PM 41.0 °F 33.9 °F 39.0 °F 93% 29.84 in 10.0 mi NW 12.7 mph 19.6 mph 0.00 in   Overcast
5:24 PM 41.0 °F 33.9 °F 39.0 °F 93% 29.81 in 10.0 mi NNW 12.7 mph 19.6 mph 0.00 in Rain Light Rain
5:31 PM 41.0 °F 35.2 °F 39.0 °F 93% 29.82 in 10.0 mi NW 9.2 mph 19.6 mph 0.00 in Rain Light Rain
5:53 PM 41.0 °F 34.3 °F 37.9 °F 89% 29.86 in 8.0 mi NNW 11.5 mph 24.2 mph 0.00 in Rain Light Rain
6:06 PM 42.1 °F 36.1 °F 39.0 °F 89% 29.83 in 10.0 mi NNW 10.4 mph - 0.00 in   Overcast
6:25 PM 42.1 °F 36.6 °F 39.0 °F 89% 29.83 in 8.0 mi NNW 9.2 mph - 0.00 in Rain Light Rain
6:53 PM 41.0 °F 34.7 °F 39.0 °F 93% 29.87 in 10.0 mi NNW 10.4 mph - 0.02 in Rain Light Rain
7:40 PM 39.9 °F 33.4 °F 37.9 °F 93% 29.86 in 10.0 mi NNW 10.4 mph - 0.00 in   Overcast
7:53 PM 39.9 °F 32.9 °F 37.9 °F 93% 29.89 in 9.0 mi NNW 11.5 mph - 0.00 in Rain Light Rain
8:31 PM 39.9 °F 33.9 °F 37.9 °F 93% 29.87 in 10.0 mi NNW 9.2 mph - 0.00 in   Overcast
8:53 PM 39.9 °F 35.1 °F 37.9 °F 93% 29.90 in 10.0 mi NW 6.9 mph - 0.00 in   Overcast
9:24 PM 39.9 °F 35.1 °F 37.9 °F 93% 29.87 in 10.0 mi NNW 6.9 mph - N/A   Overcast
9:53 PM 39.9 °F 35.1 °F 37.9 °F 93% 29.91 in 10.0 mi NNW 6.9 mph - 0.00 in Rain Light Rain
10:09 PM 39.9 °F 36.7 °F 37.9 °F 93% 29.88 in 10.0 mi NNW 4.6 mph - 0.00 in   Overcast
10:20 PM 39.9 °F 34.5 °F 37.9 °F 93% 29.88 in 10.0 mi NNW 8.1 mph - 0.00 in   Overcast
10:53 PM 39.9 °F 35.8 °F 37.9 °F 93% 29.91 in 10.0 mi NW 5.8 mph - 0.00 in   Overcast
11:26 PM 39.9 °F 35.1 °F 37.9 °F 93% 29.88 in 10.0 mi NW 6.9 mph - N/A   Overcast
11:33 PM 39.9 °F 35.8 °F 37.9 °F 93% 29.87 in 10.0 mi NW 5.8 mph - N/A   Overcast
11:53 PM 39.0 °F 34.8 °F 37.9 °F 96% 29.91 in 10.0 mi NW 5.8 mph - N/A   Mostly Cloudy